| time (UTC) | temp C | wind direction | speed KPH | gust KPH | rain 1hr cm | rain 24hr cm | rain mn cm | humidity % | barometer mb |
| 20260504042625 | 9 | 90 | 4.8 | 12.9 | 0.00 | 0.00 | 0.00 | 71 | 1006.5 |
| 20260504041520 | 9 | 181 | 4.8 | 12.9 | 0.00 | 0.00 | 0.00 | 69 | 1006.5 |
| 20260504040529 | 10 | 64 | 4.8 | 17.7 | 0.00 | 0.00 | 0.00 | 68 | 1006.4 |
| 20260504035537 | 10 | 98 | 6.4 | 17.7 | 0.00 | 0.00 | 0.00 | 67 | 1006.4 |
| 20260504034626 | 10 | 162 | 4.8 | 8.0 | 0.00 | 0.00 | 0.00 | 65 | 1006.4 |
| 20260504032523 | 10 | 23 | 3.2 | 9.7 | 0.00 | 0.00 | 0.00 | 65 | 1006.5 |
| 20260504030521 | 10 | 4 | 11.3 | 17.7 | 0.00 | 0.00 | 0.00 | 63 | 1006.6 |
| 20260504025520 | 10 | 276 | 8.0 | 14.5 | 0.00 | 0.00 | 0.00 | 60 | 1006.6 |
| 20260504024527 | 10 | 243 | 8.0 | 24.1 | 0.00 | 0.00 | 0.00 | 60 | 1006.7 |
| 20260504023527 | 10 | 203 | 0.0 | 4.8 | 0.00 | 0.00 | 0.00 | 59 | 1006.8 |
| 20260504022529 | 11 | 69 | 4.8 | 17.7 | 0.00 | 0.00 | 0.00 | 57 | 1006.9 |
| 20260504021525 | 11 | 145 | 6.4 | 17.7 | 0.00 | 0.00 | 0.00 | 55 | 1006.8 |
| 20260504020532 | 11 | 92 | 3.2 | 17.7 | 0.00 | 0.00 | 0.00 | 53 | 1006.8 |
| 20260504015522 | 11 | 0.0 | 0.0 | 0.00 | 0.00 | 0.00 | 53 | 1006.6 | |
| 20260504014534 | 11 | 0.0 | 0.0 | 0.00 | 0.00 | 0.00 | 52 | 1006.6 | |
| 20260504013522 | 11 | 1.6 | 9.7 | 0.00 | 0.00 | 0.00 | 52 | 1006.7 | |
| 20260504012527 | 11 | 131 | 1.6 | 9.7 | 0.00 | 0.00 | 0.00 | 51 | 1006.7 |
| 20260504011525 | 11 | 248 | 1.6 | 9.7 | 0.00 | 0.00 | 0.00 | 51 | 1006.6 |
| 20260504010521 | 11 | 24 | 8.0 | 22.5 | 0.00 | 0.00 | 0.00 | 51 | 1006.6 |
| 20260504005519 | 11 | 20 | 8.0 | 17.7 | 0.00 | 0.00 | 0.00 | 49 | 1006.4 |
| 20260504004522 | 12 | 37 | 6.4 | 17.7 | 0.00 | 0.00 | 0.00 | 48 | 1006.4 |
| 20260504003530 | 12 | 115 | 9.7 | 32.2 | 0.00 | 0.00 | 0.00 | 46 | 1006.3 |
| 20260504002521 | 12 | 171 | 1.6 | 14.5 | 0.00 | 0.00 | 0.00 | 45 | 1006.2 |
| 20260504001529 | 12 | 0.0 | 0.0 | 0.00 | 0.00 | 0.00 | 45 | 1006.0 | |
| 20260504000519 | 12 | 168 | 4.8 | 19.3 | 0.00 | 0.00 | 0.00 | 43 | 1006.1 |
| 20260503235528 | 13 | 113 | 6.4 | 19.3 | 0.00 | 0.00 | 0.00 | 42 | 1006.1 |
| 20260503234533 | 13 | 352 | 3.2 | 14.5 | 0.00 | 0.00 | 0.00 | 41 | 1006.0 |
| 20260503233522 | 13 | 263 | 1.6 | 9.7 | 0.00 | 0.00 | 0.00 | 39 | 1005.9 |
| 20260503232530 | 13 | 269 | 1.6 | 9.7 | 0.00 | 0.00 | 0.00 | 38 | 1006.0 |
| 20260503231520 | 13 | 64 | 6.4 | 14.5 | 0.00 | 0.00 | 0.00 | 38 | 1006.0 |
| 20260503230521 | 13 | 128 | 6.4 | 17.7 | 0.00 | 0.00 | 0.00 | 36 | 1006.0 |
| 20260503225521 | 13 | 0.0 | 0.0 | 0.00 | 0.00 | 0.00 | 36 | 1006.0 | |
| 20260503224545 | 14 | 61 | 8.0 | 17.7 | 0.00 | 0.00 | 0.00 | 35 | 1006.0 |
| 20260503222523 | 14 | 248 | 11.3 | 24.1 | 0.00 | 0.00 | 0.00 | 35 | 1006.1 |
| 20260503221531 | 15 | 240 | 6.4 | 14.5 | 0.00 | 0.00 | 0.00 | 35 | 1006.2 |
| 20260503220521 | 15 | 222 | 4.8 | 14.5 | 0.00 | 0.00 | 0.00 | 35 | 1006.2 |
| 20260503215522 | 15 | 43 | 8.0 | 17.7 | 0.00 | 0.00 | 0.00 | 35 | 1006.2 |
| 20260503214529 | 15 | 40 | 6.4 | 14.5 | 0.00 | 0.00 | 0.00 | 35 | 1006.2 |
| 20260503212522 | 15 | 277 | 4.8 | 14.5 | 0.00 | 0.00 | 0.00 | 35 | 1006.3 |
| 20260503211519 | 15 | 241 | 14.5 | 24.1 | 0.00 | 0.00 | 0.00 | 34 | 1006.3 |
| 20260503210522 | 15 | 80 | 8.0 | 17.7 | 0.00 | 0.00 | 0.00 | 34 | 1006.4 |
| 20260503205523 | 15 | 240 | 8.0 | 19.3 | 0.00 | 0.00 | 0.00 | 35 | 1006.4 |
| 20260503204624 | 15 | 225 | 1.6 | 12.9 | 0.00 | 0.00 | 0.00 | 36 | 1006.6 |
| 20260503203529 | 15 | 26 | 14.5 | 22.5 | 0.00 | 0.00 | 0.00 | 35 | 1006.7 |
| 20260503202546 | 15 | 111 | 16.1 | 27.4 | 0.00 | 0.00 | 0.00 | 35 | 1006.8 |
| 20260503201522 | 16 | 104 | 6.4 | 14.5 | 0.00 | 0.00 | 0.00 | 35 | 1006.8 |
| 20260503200524 | 17 | 83 | 11.3 | 22.5 | 0.00 | 0.00 | 0.00 | 36 | 1006.8 |
| 20260503195524 | 15 | 126 | 9.7 | 27.4 | 0.00 | 0.00 | 0.00 | 37 | 1007.0 |
| 20260503194642 | 17 | 105 | 4.8 | 14.5 | 0.00 | 0.00 | 0.00 | 36 | 1007.2 |
| 20260503193519 | 15 | 30 | 4.8 | 14.5 | 0.00 | 0.00 | 0.00 | 37 | 1007.3 |
| 20260503192522 | 16 | 274 | 16.1 | 24.1 | 0.00 | 0.00 | 0.00 | 36 | 1007.6 |
| 20260503191522 | 15 | 173 | 11.3 | 22.5 | 0.00 | 0.00 | 0.00 | 38 | 1007.7 |
| 20260503190524 | 15 | 157 | 4.8 | 12.9 | 0.00 | 0.00 | 0.00 | 38 | 1007.8 |
| 20260503185525 | 16 | 161 | 9.7 | 19.3 | 0.00 | 0.00 | 0.00 | 37 | 1007.8 |
| 20260503184526 | 16 | 44 | 9.7 | 22.5 | 0.00 | 0.00 | 0.00 | 38 | 1008.0 |
| 20260503183522 | 16 | 88 | 6.4 | 14.5 | 0.00 | 0.00 | 0.00 | 39 | 1008.2 |
| 20260503182519 | 16 | 96 | 12.9 | 27.4 | 0.00 | 0.00 | 0.00 | 38 | 1008.4 |
| 20260503181519 | 16 | 144 | 14.5 | 19.3 | 0.00 | 0.00 | 0.00 | 38 | 1008.4 |
| 20260503180531 | 16 | 153 | 9.7 | 32.2 | 0.00 | 0.00 | 0.00 | 38 | 1008.5 |
| 20260503175527 | 15 | 126 | 12.9 | 22.5 | 0.00 | 0.00 | 0.00 | 39 | 1008.7 |
| 20260503174527 | 14 | 150 | 8.0 | 17.7 | 0.00 | 0.00 | 0.00 | 40 | 1008.9 |
| 20260503173521 | 15 | 254 | 9.7 | 22.5 | 0.00 | 0.00 | 0.00 | 39 | 1009.0 |
| 20260503172523 | 14 | 282 | 4.8 | 22.5 | 0.00 | 0.00 | 0.00 | 42 | 1009.1 |
| 20260503171530 | 13 | 243 | 4.8 | 14.5 | 0.00 | 0.00 | 0.00 | 40 | 1009.3 |
| 20260503170520 | 14 | 103 | 11.3 | 24.1 | 0.00 | 0.00 | 0.00 | 41 | 1009.4 |
| 20260503090139 | 3 | 0.0 | 0.0 | 0.00 | 0.00 | 0.00 | 74 | 1011.8 | |
| 20260503081125 | 3 | 293 | 0.0 | 4.8 | 0.00 | 0.00 | 0.00 | 73 | 1012.0 |
| 20260503072024 | 4 | 0.0 | 4.8 | 0.00 | 0.00 | 0.00 | 73 | 1012.0 | |
| 20260503071023 | 4 | 293 | 0.0 | 4.8 | 0.00 | 0.00 | 0.00 | 72 | 1012.0 |
| 20260503055023 | 5 | 315 | 1.6 | 8.0 | 0.00 | 0.00 | 0.00 | 71 | 1012.3 |
| 20260503054030 | 5 | 0.0 | 0.0 | 0.00 | 0.00 | 0.00 | 70 | 1012.4 | |
| 20260503053020 | 5 | 0.0 | 0.0 | 0.00 | 0.00 | 0.00 | 69 | 1012.4 | |
| 20260503052020 | 5 | 0.0 | 0.0 | 0.00 | 0.00 | 0.00 | 69 | 1012.5 | |
| 20260503051025 | 5 | 274 | 1.6 | 12.9 | 0.00 | 0.00 | 0.00 | 69 | 1012.5 |
| 20260503045026 | 5 | 360 | 0.0 | 4.8 | 0.00 | 0.00 | 0.00 | 70 | 1012.6 |
| 20260503044026 | 5 | 0.0 | 0.0 | 0.00 | 0.00 | 0.00 | 70 | 1012.7 | |
| 20260503043020 | 5 | 0.0 | 0.0 | 0.00 | 0.00 | 0.00 | 70 | 1012.7 |